McComb, MS

4:24 AM CDT on September 26, 2017 (GMT -0500)
McComb-Pike County-Lewis

Weather History for KMCB - March, 2013

Change the Weather History Date:

Sunday, March 3, 2013

  Actual Average Record
Temperature  
Mean Temperature 40 °F -  
Max Temperature 55 °F 66 °F 83 °F (1953)
Min Temperature 24 °F 46 °F 14 °F (1980)
Degree Days  
Heating Degree Days 26    
Moisture  
Dew Point 23 °F    
Average Humidity 57    
Maximum Humidity 88    
Minimum Humidity 23    
Precipitation  
Precipitation 0.00 in - - ()
Sea Level Pressure  
Sea Level Pressure 30.20 in    
Wind  
Wind Speed 2 mph (NW)    
Max Wind Speed 10 mph    
Max Gust Speed -    
Visibility 10 miles    
Events      
Averages and records for this station are not official NWS values.
T = Trace of Precipitation, MM = Missing Value Source: NWS Daily Summary

Daily Weather History Graph

Daily Weather History Graph

Search for Another Location

Airport or City:

Trip Planner

Search our weather history database for the weather conditions in past years. The results will help you decide how hot, cold, wet, or windy it might be!

Date:

Astronomy

Mar. 03, 2013 Rise Set
Actual Time 6:25 AM CST 6:01 PM CST
Civil Twilight 6:01 AM CST 6:26 PM CST
Nautical Twilight 5:33 AM CST 6:54 PM CST
Astronomical Twilight 5:05 AM CST 7:22 PM CST
Moon No Moon Rise 10:06 AM CST (3/3)
Length of Visible Light 12h 24m
Length of Day
11h 35m
Waning Gibbous, 63% of the Moon is Illuminated
Mar 3
Waning Gibbous
Mar 4
Last Quarter
Mar 11
New
Mar 19
First Quarter
Mar 27
Full

Hourly Weather History & Observations

Time (CST) Temp. Windchill Dew Point Humidity Pressure Visibility Wind Dir Wind Speed Gust Speed Precip Events Conditions
12:53 AM 28.9 °F - 23.0 °F 78% 30.25 in 10.0 mi Calm Calm - N/A   Clear
1:53 AM 28.0 °F - 23.0 °F 81% 30.24 in 10.0 mi Calm Calm - N/A   Clear
2:53 AM 26.1 °F - 21.9 °F 84% 30.23 in 10.0 mi Calm Calm - N/A   Clear
3:53 AM 26.1 °F - 23.0 °F 88% 30.24 in 10.0 mi Calm Calm - N/A   Clear
4:53 AM 26.1 °F - 23.0 °F 88% 30.25 in 10.0 mi Calm Calm - N/A   Clear
5:53 AM 24.1 °F 19.7 °F 21.0 °F 88% 30.27 in 10.0 mi NNW 3.5 mph - N/A   Clear
6:53 AM 26.1 °F - 21.9 °F 84% 30.28 in 10.0 mi Calm Calm - N/A   Clear
7:53 AM 30.9 °F 27.5 °F 25.0 °F 79% 30.29 in 10.0 mi NW 3.5 mph - N/A   Clear
8:53 AM 37.0 °F 31.6 °F 21.0 °F 52% 30.29 in 10.0 mi NNW 6.9 mph - N/A   Clear
9:53 AM 39.9 °F 36.7 °F 19.9 °F 45% 30.27 in 10.0 mi Variable 4.6 mph - N/A   Clear
10:53 AM 43.0 °F 40.3 °F 19.0 °F 38% 30.26 in 10.0 mi Variable 4.6 mph - N/A   Clear
11:53 AM 46.9 °F - 17.1 °F 30% 30.22 in 10.0 mi Calm Calm - N/A   Clear
12:53 PM 50.0 °F - 18.0 °F 28% 30.20 in 10.0 mi NNW 10.4 mph - N/A   Clear
1:53 PM 53.1 °F - 19.0 °F 26% 30.18 in 10.0 mi WNW 9.2 mph - N/A   Clear
2:53 PM 54.0 °F - 18.0 °F 24% 30.17 in 10.0 mi Variable 4.6 mph - N/A   Clear
3:53 PM 55.0 °F - 18.0 °F 23% 30.14 in 10.0 mi North 3.5 mph - N/A   Clear
4:53 PM 54.0 °F - 19.9 °F 26% 30.14 in 10.0 mi WNW 8.1 mph - N/A   Clear
5:53 PM 52.0 °F - 21.9 °F 31% 30.14 in 10.0 mi Calm Calm - N/A   Clear
6:53 PM 45.0 °F - 28.9 °F 53% 30.15 in 10.0 mi Calm Calm - N/A   Clear
7:53 PM 43.0 °F - 30.0 °F 60% 30.15 in 10.0 mi Calm Calm - N/A   Clear
8:53 PM 41.0 °F - 28.9 °F 62% 30.15 in 10.0 mi Calm Calm - N/A   Clear
9:53 PM 37.9 °F - 30.0 °F 73% 30.15 in 10.0 mi Calm Calm - N/A   Clear
10:53 PM 39.0 °F 35.7 °F 30.0 °F 70% 30.13 in 10.0 mi South 4.6 mph - N/A   Clear
11:53 PM 41.0 °F 38.0 °F 30.9 °F 67% 30.12 in 10.0 mi South 4.6 mph - N/A   Clear